Wind_Speed
14 13 13 13 13 13 12 12 12 13 12 11 11 11 10 9 9 9 8 8 9 9 9 8 8 8 7 7 6 7 6 5 5 4 4 3 2 2 2 3 3 3 4 4
15 14 14 14 14 13 12 12 12 12 12 11 10 10 9 9 10 9 9 9 9 9 10 9 8 9 8 8 8 7 7 6 6 5 4 3 2 2 2 2 3 3 4 5
15 15 15 14 14 14 13 13 12 12 11 11 11 10 9 9 10 10 9 10 10 10 10 10 9 9 10 9 8 8 8 6 6 5 4 4 3 2 2 3 3 3 4 5
17 16 16 15 15 15 14 14 13 13 12 12 12 10 10 9 9 9 10 10 10 10 10 10 10 10 11 10 10 9 8 7 6 6 5 4 4 3 3 3 3 4 4 5
17 17 16 15 15 15 14 14 13 13 13 12 11 11 9 9 9 9 9 10 9 10 10 10 10 11 11 11 11 10 9 8 7 6 6 5 4 4 3 4 4 4 5 5
18 18 17 16 16 15 15 14 14 14 13 12 11 11 9 9 10 9 9 10 10 10 10 10 10 11 12 12 11 11 9 8 8 7 6 6 4 5 4 4 4 4 4 5
20 19 18 17 17 16 15 15 14 14 13 12 11 11 9 10 10 10 10 10 11 10 11 11 11 11 12 12 12 11 10 9 9 8 7 7 6 5 5 4 4 4 4 4
20 20 19 17 17 16 16 16 15 15 13 12 12 11 10 11 11 10 10 11 10 11 11 11 12 12 12 12 12 11 11 10 9 9 8 7 7 6 6 6 5 5 4 4
21 21 20 19 18 18 18 17 16 16 15 13 12 11 10 11 11 11 11 11 10 11 11 12 12 11 12 12 12 12 12 11 10 10 9 8 7 7 7 6 5 5 4 4
22 22 21 21 20 20 19 18 18 17 16 14 13 12 11 11 12 11 11 11 11 11 12 13 13 12 12 12 13 12 12 12 11 10 10 9 8 8 8 7 6 6 5 5
23 23 22 22 21 20 20 20 19 18 17 15 13 12 12 12 12 12 12 12 12 12 12 12 13 13 12 12 13 13 13 13 12 11 11 11 10 9 9 8 7 7 7 6
24 24 23 23 22 22 21 21 20 19 17 15 14 12 12 12 12 12 11 12 12 12 12 13 13 12 13 13 13 14 13 13 13 12 12 12 12 10 10 9 9 8 8 7
25 25 24 24 23 23 22 22 21 19 18 16 15 13 12 12 12 12 12 12 13 13 13 13 13 13 13 13 13 14 14 14 13 13 13 13 13 12 11 11 10 10 9 8
26 26 25 24 23 23 22 22 21 21 19 17 15 13 13 13 13 13 13 13 13 13 13 14 14 14 14 14 13 14 14 14 14 14 13 14 14 14 13 12 11 11 11 9
27 26 25 25 24 23 23 22 21 21 20 18 16 15 14 14 14 14 13 13 13 14 14 14 15 14 14 14 14 14 14 15 15 15 14 14 14 15 14 13 12 12 12 11
28 27 26 26 25 24 24 23 22 21 20 19 18 17 16 16 15 15 14 13 14 14 14 14 14 14 13 14 14 15 15 15 15 15 15 15 15 16 16 15 14 13 13 13
29 28 27 26 26 25 24 22 22 22 20 19 18 17 18 17 16 15 15 15 14 14 15 14 14 14 14 14 15 15 15 15 15 16 16 16 16 16 16 16 15 15 14 14
30 30 29 27 27 28 23 22 23 22 21 19 17 18 18 17 17 16 15 14 15 15 16 16 15 15 15 14 15 15 16 16 16 16 16 17 17 17 17 16 16 15 15 15
32 31 30 29 29 26 24 23 23 23 21 20 18 18 18 17 18 17 16 15 15 15 16 15 15 15 15 15 15 16 16 17 17 17 16 17 18 18 17 17 17 17 16 16
32 32 31 30 29 26 23 23 23 23 22 20 19 18 18 18 18 17 17 16 16 16 17 16 15 15 14 14 14 14 15 16 17 18 18 18 18 19 19 19 18 18 17 17
33 32 32 31 29 25 22 23 23 23 21 21 20 19 19 18 17 18 18 17 17 17 17 17 16 15 15 14 14 15 16 16 17 17 18 18 19 19 20 19 19 19 18 18
33 32 31 30 29 25 22 23 23 22 22 21 21 20 20 19 19 19 18 18 18 18 17 17 17 17 16 16 16 16 17 17 17 17 18 18 18 18 19 19 19 19 20 20
32 31 30 28 26 25 23 23 23 23 22 22 21 21 21 20 20 20 19 19 19 19 19 18 18 18 18 18 17 17 17 18 17 17 18 18 18 18 18 18 18 18 19 19
32 31 31 29 28 26 25 23 23 23 21 22 22 21 20 20 21 21 20 20 20 20 20 19 19 19 19 19 19 18 18 18 18 18 18 18 17 18 19 18 19 19 19 20
31 31 31 30 28 27 26 25 24 23 22 21 22 20 20 21 20 20 20 21 20 20 20 20 20 20 20 20 20 19 19 18 19 19 18 18 18 19 20 19 20 20 20 20
31 31 30 29 28 28 27 26 25 24 23 22 21 21 21 21 21 21 21 20 20 20 20 21 21 21 20 20 20 20 20 19 19 19 19 19 19 20 21 21 21 21 21 21
Wind_Direction
272 271 270 269 271 275 277 275 277 273 270 272 269 267 268 262 261 260 256 250 244 240 238 237 236 232 227 219 207 198 202 199 197 195 170 156 134 119 101 90 81 81 82 70
267 267 266 269 274 274 272 271 274 274 270 267 264 266 265 258 258 258 253 247 242 244 241 240 237 228 220 211 204 201 202 203 203 191 177 166 155 133 119 109 103 97 85 73
264 262 265 268 271 272 271 270 271 270 268 264 265 264 261 258 257 256 256 252 247 244 241 240 237 227 219 209 202 201 204 207 198 184 177 173 164 148 133 118 112 112 96 83
260 260 262 265 268 269 268 269 269 267 266 264 262 261 262 261 256 256 258 254 245 242 240 237 231 224 216 210 205 198 196 193 190 189 186 183 176 161 145 127 123 121 111 101
256 258 260 262 265 266 266 266 265 265 264 263 262 261 262 262 258 259 256 250 243 245 238 230 226 219 213 210 206 197 197 199 194 191 192 188 179 168 152 138 129 128 119 109
253 256 258 261 261 262 263 264 264 263 262 261 263 264 258 260 258 256 252 248 243 244 236 228 227 220 212 209 206 200 201 203 197 196 194 191 187 177 164 148 138 132 125 115
252 252 254 255 255 257 260 263 264 264 260 261 263 263 259 256 259 257 255 251 247 246 237 230 227 223 215 209 205 204 204 204 201 201 199 198 197 183 176 165 151 144 138 132
250 251 252 252 253 255 258 261 263 263 261 261 260 262 262 259 258 257 256 252 248 246 235 229 227 223 213 208 207 209 209 207 205 207 206 203 198 192 185 178 169 163 157 147
247 248 249 250 251 251 253 256 260 262 262 260 259 258 258 258 256 255 252 251 248 242 232 225 225 222 214 212 214 213 211 210 211 214 211 205 199 197 195 189 185 181 173 163
245 245 246 247 249 249 252 255 257 259 260 260 256 252 253 258 255 253 250 250 245 241 235 226 224 221 217 216 215 214 214 214 213 213 213 208 204 204 204 200 198 197 195 192
244 244 244 246 247 250 251 253 255 257 258 259 255 253 254 255 253 253 250 245 242 239 231 223 222 220 217 217 219 217 217 215 214 216 216 213 211 210 210 208 209 212 211 207
243 243 244 245 246 247 248 250 251 253 254 256 254 251 250 249 249 250 249 245 242 236 231 224 221 222 220 218 220 220 221 219 218 219 218 217 216 215 215 213 215 219 219 217
243 243 243 243 244 244 246 246 247 249 251 252 252 250 249 247 247 248 248 244 241 239 235 228 222 223 223 221 224 223 222 221 222 221 220 219 221 221 220 218 222 222 222 224
240 242 244 244 245 245 244 243 243 245 248 248 249 248 248 247 244 245 245 243 241 240 237 230 225 224 225 226 228 227 225 223 224 225 225 225 227 226 225 224 226 226 227 230
238 241 242 242 241 242 242 241 242 245 245 245 244 244 241 243 241 242 243 241 240 240 237 231 226 225 227 229 229 229 228 226 226 226 228 228 230 230 229 229 228 230 232 235
238 239 239 239 239 240 241 241 243 246 247 246 242 240 237 239 242 242 241 239 238 237 233 229 228 229 233 234 232 230 229 228 227 227 229 231 231 232 232 232 231 234 237 240
237 238 238 238 238 239 239 240 243 245 248 247 243 238 236 237 239 240 239 237 236 233 229 227 229 232 235 236 236 233 230 228 227 230 233 233 229 229 231 233 235 238 241 245
234 236 238 239 238 239 237 239 242 244 245 244 241 237 235 235 235 238 238 235 234 235 231 229 229 233 236 237 235 233 232 230 228 233 237 234 229 229 232 236 239 241 242 245
233 234 236 238 239 239 238 240 242 243 243 243 241 237 235 235 234 236 236 235 235 234 232 232 232 234 236 238 236 235 234 235 234 236 238 235 233 233 234 237 240 243 244 246
232 233 235 237 238 239 238 241 241 242 242 241 240 238 236 234 234 233 234 233 233 233 232 234 235 236 237 239 238 237 236 235 236 237 240 240 239 238 239 241 245 245 245 247
231 233 235 237 239 237 236 238 238 239 239 239 238 237 236 235 233 233 233 230 230 230 232 233 234 237 239 239 241 242 239 238 238 239 239 240 239 239 240 244 246 246 246 247
232 234 235 237 238 235 235 236 236 237 237 238 237 236 235 234 232 231 231 230 230 232 233 234 236 238 239 240 243 245 243 242 243 243 242 242 240 240 242 244 244 245 247 249
231 233 234 236 237 235 234 235 235 236 236 234 234 234 234 232 230 230 231 232 231 233 235 238 239 241 242 244 247 247 245 244 243 244 244 245 246 246 246 246 246 247 249 250
231 231 231 232 232 231 232 231 233 233 234 233 233 235 234 231 231 231 232 232 232 235 237 240 242 244 246 246 247 248 248 246 244 244 244 244 246 247 248 247 248 249 253 254
231 231 231 231 230 230 231 231 232 231 231 232 232 233 234 232 230 232 234 234 236 237 240 240 242 244 247 247 247 248 249 248 246 245 246 246 248 249 249 250 251 252 254 256
229 230 231 230 228 229 229 230 231 231 229 229 231 234 235 236 234 233 233 236 237 238 240 241 241 244 247 248 248 249 249 249 246 246 246 247 250 251 251 252 254 255 257 258
Height
5853 5855 5854 5854 5855 5855 5856 5856 5856 5856 5856 5857 5857 5857 5857 5857 5857 5857 5857 5857 5858 5858 5859 5859 5860 5861 5861 5861 5862 5863 5864 5864 5865 5865 5866 5866 5866 5866 5865 5865 5865 5864 5864 5863
5851 5852 5852 5852 5852 5853 5853 5854 5854 5854 5854 5855 5854 5855 5855 5855 5855 5855 5856 5856 5856 5857 5857 5858 5858 5859 5860 5860 5861 5862 5863 5864 5864 5865 5865 5866 5866 5866 5866 5866 5865 5865 5865 5864
5848 5849 5849 5849 5850 5850 5851 5851 5852 5852 5852 5852 5853 5853 5853 5853 5853 5854 5854 5854 5855 5855 5855 5856 5857 5858 5859 5860 5860 5861 5862 5863 5864 5864 5865 5865 5866 5866 5866 5866 5866 5866 5865 5865
5844 5845 5846 5846 5847 5848 5848 5849 5849 5849 5850 5850 5851 5851 5851 5851 5851 5852 5852 5852 5853 5853 5853 5854 5855 5856 5857 5859 5860 5860 5861 5862 5863 5864 5865 5865 5866 5866 5866 5866 5866 5866 5866 5866
5841 5842 5843 5844 5845 5845 5846 5846 5847 5847 5847 5848 5848 5849 5850 5849 5849 5850 5850 5850 5850 5851 5852 5852 5853 5855 5856 5857 5859 5859 5861 5862 5863 5864 5865 5865 5866 5866 5866 5867 5867 5867 5867 5867
5837 5838 5840 5841 5841 5842 5843 5844 5844 5844 5845 5846 5846 5846 5848 5847 5847 5848 5848 5848 5849 5849 5850 5851 5852 5853 5854 5856 5857 5859 5860 5861 5862 5863 5864 5865 5866 5866 5867 5867 5867 5867 5867 5867
5833 5835 5836 5837 5838 5839 5841 5842 5842 5842 5842 5843 5844 5844 5846 5845 5845 5846 5846 5846 5847 5847 5848 5849 5850 5851 5853 5854 5856 5858 5859 5860 5861 5862 5863 5864 5865 5866 5866 5867 5868 5868 5868 5868
5829 5831 5833 5834 5835 5836 5837 5839 5840 5840 5840 5841 5841 5841 5844 5843 5843 5843 5844 5844 5845 5845 5846 5847 5848 5850 5851 5853 5855 5856 5857 5859 5860 5861 5863 5864 5864 5865 5866 5867 5868 5868 5868 5869
5825 5827 5829 5830 5831 5833 5834 5835 5836 5837 5837 5838 5839 5840 5841 5841 5841 5841 5841 5842 5842 5843 5844 5845 5847 5848 5849 5851 5853 5854 5856 5857 5859 5860 5861 5863 5864 5865 5866 5867 5867 5868 5869 5869
5820 5823 5824 5825 5827 5829 5831 5831 5832 5833 5834 5835 5836 5837 5838 5838 5839 5839 5839 5840 5840 5841 5842 5843 5845 5846 5848 5849 5851 5853 5854 5856 5857 5859 5860 5862 5863 5864 5865 5866 5867 5868 5868 5869
5815 5818 5820 5821 5823 5825 5827 5828 5829 5830 5831 5832 5833 5837 5836 5836 5836 5836 5837 5838 5838 5839 5840 5841 5843 5844 5846 5847 5849 5851 5853 5854 5856 5857 5858 5860 5862 5863 5864 5865 5866 5867 5868 5868
5809 5812 5814 5817 5818 5820 5821 5823 5825 5827 5828 5828 5830 5835 5832 5833 5833 5834 5834 5835 5836 5837 5838 5839 5841 5842 5844 5845 5847 5849 5851 5852 5854 5855 5857 5858 5860 5862 5863 5864 5865 5866 5867 5868
5804 5807 5809 5811 5815 5816 5817 5818 5820 5822 5824 5825 5826 5831 5829 5829 5830 5831 5831 5832 5833 5834 5835 5837 5838 5840 5842 5843 5845 5847 5848 5850 5852 5853 5855 5857 5858 5860 5861 5862 5864 5865 5866 5867
5798 5800 5804 5807 5808 5810 5812 5814 5815 5817 5819 5821 5823 5825 5826 5826 5826 5827 5828 5829 5830 5832 5833 5834 5836 5837 5839 5841 5842 5844 5846 5848 5849 5851 5853 5854 5856 5858 5859 5861 5862 5863 5864 5865
5791 5794 5797 5800 5802 5805 5806 5809 5810 5812 5815 5817 5819 5820 5822 5822 5823 5824 5825 5826 5827 5829 5830 5832 5833 5835 5836 5838 5840 5841 5843 5845 5846 5848 5850 5852 5853 5855 5857 5859 5860 5861 5862 5863
5785 5788 5791 5794 5797 5799 5801 5804 5806 5808 5810 5812 5814 5816 5817 5818 5819 5821 5822 5823 5824 5826 5827 5829 5830 5832 5833 5835 5837 5838 5840 5842 5843 5845 5847 5849 5850 5853 5854 5856 5857 5859 5860 5861
5779 5783 5786 5789 5791 5793 5796 5800 5801 5803 5805 5808 5810 5813 5813 5814 5816 5817 5818 5819 5821 5823 5824 5826 5827 5829 5830 5832 5833 5835 5837 5838 5840 5842 5844 5846 5848 5849 5851 5853 5855 5856 5857 5858
5773 5776 5780 5783 5786 5787 5795 5795 5796 5798 5801 5803 5805 5807 5808 5810 5812 5813 5814 5816 5818 5819 5821 5822 5824 5826 5827 5829 5830 5831 5833 5835 5837 5839 5841 5843 5844 5846 5848 5850 5851 5852 5854 5855
5766 5770 5773 5776 5779 5783 5788 5790 5791 5794 5796 5798 5800 5802 5804 5806 5807 5809 5811 5812 5814 5815 5817 5819 5821 5822 5824 5825 5827 5828 5830 5832 5834 5836 5837 5839 5841 5843 5845 5846 5848 5849 5850 5851
5759 5763 5767 5770 5773 5777 5784 5785 5786 5789 5791 5794 5795 5798 5799 5801 5804 5806 5807 5809 5810 5812 5814 5816 5817 5819 5820 5822 5823 5825 5826 5828 5830 5832 5833 5835 5837 5839 5841 5842 5844 5845 5846 5847
5753 5756 5760 5764 5767 5772 5777 5778 5781 5785 5788 5789 5790 5793 5795 5797 5800 5802 5803 5805 5806 5808 5810 5812 5814 5815 5817 5819 5820 5821 5823 5824 5826 5827 5829 5831 5833 5835 5836 5838 5839 5841 5842 5843
5746 5751 5754 5758 5762 5769 5771 5773 5776 5779 5781 5783 5785 5788 5790 5793 5794 5796 5799 5801 5803 5804 5806 5808 5810 5812 5813 5815 5816 5817 5818 5820 5821 5823 5825 5826 5828 5830 5832 5833 5835 5836 5838 5839
5740 5745 5749 5754 5759 5762 5765 5767 5770 5772 5775 5777 5780 5783 5785 5788 5790 5792 5794 5796 5798 5800 5803 5804 5806 5808 5809 5811 5812 5813 5814 5816 5817 5819 5820 5822 5824 5825 5827 5829 5830 5832 5833 5834
5733 5738 5742 5747 5751 5755 5758 5761 5764 5767 5770 5773 5775 5778 5780 5783 5785 5788 5790 5792 5794 5796 5798 5800 5802 5803 5805 5806 5808 5809 5810 5811 5813 5814 5816 5818 5819 5821 5822 5824 5826 5827 5828 5829
5727 5731 5735 5740 5745 5748 5752 5755 5759 5762 5765 5768 5771 5773 5776 5778 5780 5783 5785 5787 5789 5791 5793 5795 5796 5798 5800 5801 5803 5804 5805 5807 5808 5810 5812 5813 5815 5816 5818 5819 5821 5822 5823 5824
5720 5725 5730 5734 5739 5742 5747 5750 5753 5757 5760 5763 5766 5768 5771 5773 5776 5778 5780 5782 5784 5786 5788 5789 5791 5793 5795 5796 5798 5799 5801 5802 5804 5805 5807 5808 5810 5811 5813 5814 5815 5817 5818 5819